TimePDT,TemperatureF,Dew PointF,Humidity,Sea Level PressureIn,VisibilityMPH,Wind Direction,Wind SpeedMPH,Gust SpeedMPH,PrecipitationIn,Events,Conditions,WindDirDegrees,DateUTC
12:15 AM,48.2,-4.0,11,29.81,10.0,West,16.1,-,N/A,,Clear,270,2013-09-26 07:15:00
12:35 AM,48.2,-5.8,10,29.81,10.0,West,16.1,23.0,N/A,,Clear,280,2013-09-26 07:35:00
12:55 AM,46.4,-4.0,12,29.80,10.0,West,13.8,18.4,N/A,,Clear,270,2013-09-26 07:55:00
1:15 AM,46.4,-7.6,10,29.80,10.0,West,16.1,20.7,N/A,,Clear,280,2013-09-26 08:15:00
1:35 AM,46.4,-7.6,10,29.80,10.0,West,18.4,21.9,N/A,,Clear,280,2013-09-26 08:35:00
1:55 AM,46.4,-4.0,12,29.80,10.0,WNW,15.0,21.9,N/A,,Clear,290,2013-09-26 08:55:00
2:15 AM,44.6,-0.4,15,29.80,10.0,WNW,13.8,-,N/A,,Clear,290,2013-09-26 09:15:00
2:35 AM,44.6,-0.4,15,29.79,10.0,WNW,10.4,19.6,N/A,,Clear,300,2013-09-26 09:35:00
2:55 AM,44.6,3.2,18,29.79,10.0,West,9.2,17.3,N/A,,Clear,280,2013-09-26 09:55:00
3:15 AM,44.6,5.0,20,29.78,10.0,WNW,10.4,-,N/A,,Clear,290,2013-09-26 10:15:00
3:35 AM,42.8,8.6,25,29.78,10.0,West,9.2,-,N/A,,Clear,270,2013-09-26 10:35:00
3:55 AM,42.8,10.4,27,29.78,10.0,West,8.1,-,N/A,,Clear,270,2013-09-26 10:55:00
4:15 AM,42.8,12.2,29,29.78,10.0,West,12.7,17.3,N/A,,Clear,280,2013-09-26 11:15:00
4:35 AM,41.0,15.8,36,29.78,10.0,West,9.2,-,N/A,,Clear,270,2013-09-26 11:35:00
4:55 AM,42.8,14.0,31,29.78,10.0,West,12.7,-,N/A,,Clear,280,2013-09-26 11:55:00
5:15 AM,42.8,14.0,31,29.78,10.0,West,13.8,-,N/A,,Clear,280,2013-09-26 12:15:00
5:35 AM,41.0,17.6,39,29.78,10.0,West,10.4,19.6,N/A,,Clear,270,2013-09-26 12:35:00
5:55 AM,39.2,23.0,52,29.78,10.0,West,16.1,20.7,N/A,,Clear,270,2013-09-26 12:55:00
6:15 AM,37.4,32.0,81,29.79,10.0,WSW,12.7,21.9,N/A,,Clear,250,2013-09-26 13:15:00
6:35 AM,35.6,32.0,87,29.80,10.0,West,12.7,18.4,N/A,,Clear,260,2013-09-26 13:35:00
6:55 AM,35.6,30.2,81,29.80,10.0,West,15.0,21.9,N/A,,Clear,260,2013-09-26 13:55:00
7:15 AM,37.4,32.0,81,29.81,10.0,West,17.3,-,N/A,,Clear,260,2013-09-26 14:15:00
7:35 AM,37.4,32.0,81,29.82,10.0,West,16.1,21.9,N/A,,Clear,260,2013-09-26 14:35:00
7:55 AM,39.2,32.0,75,29.81,10.0,West,13.8,19.6,N/A,,Clear,260,2013-09-26 14:55:00
8:15 AM,41.0,32.0,70,29.81,10.0,West,17.3,23.0,N/A,,Clear,260,2013-09-26 15:15:00
8:35 AM,41.0,32.0,70,29.82,10.0,WSW,11.5,23.0,N/A,,Clear,240,2013-09-26 15:35:00
8:55 AM,41.0,32.0,70,29.83,10.0,West,11.5,16.1,N/A,,Scattered Clouds,260,2013-09-26 15:55:00
9:15 AM,41.0,32.0,70,29.84,10.0,WSW,12.7,21.9,N/A,,Scattered Clouds,250,2013-09-26 16:15:00
9:35 AM,41.0,32.0,70,29.84,10.0,WSW,13.8,21.9,N/A,,Mostly Cloudy,250,2013-09-26 16:35:00
9:55 AM,42.8,32.0,66,29.85,10.0,WSW,12.7,24.2,N/A,,Mostly Cloudy,250,2013-09-26 16:55:00
10:15 AM,42.8,32.0,66,29.85,10.0,SW,10.4,23.0,N/A,,Scattered Clouds,230,2013-09-26 17:15:00
10:35 AM,41.0,32.0,70,29.86,10.0,WSW,12.7,25.3,N/A,,Mostly Cloudy,250,2013-09-26 17:35:00
10:55 AM,41.0,32.0,70,29.86,10.0,WSW,12.7,19.6,N/A,,Mostly Cloudy,250,2013-09-26 17:55:00
11:15 AM,41.0,32.0,70,29.86,10.0,West,12.7,19.6,N/A,,Mostly Cloudy,270,2013-09-26 18:15:00
11:35 AM,42.8,32.0,66,29.87,10.0,West,13.8,20.7,N/A,,Mostly Cloudy,260,2013-09-26 18:35:00
11:55 AM,42.8,30.2,61,29.87,10.0,West,17.3,-,N/A,,Scattered Clouds,270,2013-09-26 18:55:00
12:15 PM,42.8,30.2,61,29.87,10.0,West,15.0,18.4,N/A,,Mostly Cloudy,280,2013-09-26 19:15:00
12:35 PM,42.8,28.4,57,29.87,10.0,West,12.7,-,N/A,,Overcast,270,2013-09-26 19:35:00
12:55 PM,42.8,28.4,57,29.88,10.0,West,12.7,-,N/A,,Overcast,260,2013-09-26 19:55:00
1:15 PM,42.8,26.6,53,29.88,10.0,West,9.2,16.1,N/A,,Overcast,270,2013-09-26 20:15:00
1:35 PM,44.6,24.8,46,29.89,10.0,WSW,11.5,-,N/A,,Scattered Clouds,250,2013-09-26 20:35:00
1:55 PM,46.4,23.0,40,29.89,10.0,WSW,10.4,18.4,N/A,,Clear,250,2013-09-26 20:55:00
2:15 PM,46.4,21.2,37,29.90,10.0,WNW,12.7,17.3,N/A,,Clear,290,2013-09-26 21:15:00
2:35 PM,46.4,21.2,37,29.90,10.0,SW,10.4,17.3,N/A,,Clear,230,2013-09-26 21:35:00
2:55 PM,46.4,23.0,40,29.90,10.0,WSW,9.2,17.3,N/A,,Clear,240,2013-09-26 21:55:00
3:15 PM,46.4,19.4,34,29.91,10.0,WSW,11.5,21.9,N/A,,Clear,250,2013-09-26 22:15:00
3:35 PM,46.4,15.8,29,29.92,10.0,WSW,8.1,18.4,N/A,,Clear,250,2013-09-26 22:35:00
3:55 PM,46.4,12.2,25,29.92,10.0,West,11.5,19.6,N/A,,Clear,260,2013-09-26 22:55:00
4:15 PM,46.4,10.4,23,29.92,10.0,WSW,9.2,19.6,N/A,,Clear,250,2013-09-26 23:15:00
4:35 PM,46.4,15.8,29,29.93,10.0,West,15.0,19.6,N/A,,Clear,270,2013-09-26 23:35:00
4:55 PM,46.4,14.0,27,29.93,10.0,West,13.8,20.7,N/A,,Clear,260,2013-09-26 23:55:00
5:15 PM,46.4,14.0,27,29.94,10.0,West,10.4,-,N/A,,Clear,280,2013-09-27 00:15:00
5:35 PM,44.6,12.2,27,29.94,10.0,West,12.7,17.3,N/A,,Clear,270,2013-09-27 00:35:00
5:55 PM,44.6,12.2,27,29.94,10.0,West,8.1,-,N/A,,Clear,280,2013-09-27 00:55:00
6:15 PM,44.6,12.2,27,29.94,10.0,WSW,4.6,-,N/A,,Clear,240,2013-09-27 01:15:00
6:35 PM,42.8,14.0,31,29.94,10.0,WNW,6.9,-,N/A,,Clear,300,2013-09-27 01:35:00
6:55 PM,42.8,14.0,31,29.95,10.0,Calm,Calm,-,N/A,,Clear,0,2013-09-27 01:55:00
7:15 PM,39.2,17.6,42,29.95,10.0,Calm,Calm,-,N/A,,Clear,0,2013-09-27 02:15:00
7:35 PM,37.4,15.8,41,29.96,10.0,Calm,Calm,-,N/A,,Clear,0,2013-09-27 02:35:00
7:55 PM,33.8,15.8,48,29.97,5.0,Calm,Calm,-,N/A,,Haze,0,2013-09-27 02:55:00
8:15 PM,33.8,17.6,52,29.98,10.0,Calm,Calm,-,N/A,,Clear,0,2013-09-27 03:15:00
8:35 PM,33.8,17.6,52,29.99,7.0,Calm,Calm,-,N/A,,Clear,0,2013-09-27 03:35:00
8:55 PM,33.8,17.6,52,29.99,10.0,Calm,Calm,-,N/A,,Clear,0,2013-09-27 03:55:00
9:15 PM,32.0,17.6,55,30.00,10.0,Calm,Calm,-,N/A,,Clear,0,2013-09-27 04:15:00
9:35 PM,32.0,17.6,55,30.00,10.0,Calm,Calm,-,N/A,,Clear,0,2013-09-27 04:35:00
9:55 PM,30.2,17.6,60,30.01,10.0,Calm,Calm,-,N/A,,Clear,0,2013-09-27 04:55:00
10:15 PM,30.2,17.6,60,30.01,10.0,Calm,Calm,-,N/A,,Clear,0,2013-09-27 05:15:00
10:35 PM,30.2,19.4,64,30.02,10.0,Calm,Calm,-,N/A,,Clear,0,2013-09-27 05:35:00
10:55 PM,30.2,19.4,64,30.02,10.0,Calm,Calm,-,N/A,,Clear,0,2013-09-27 05:55:00
11:15 PM,30.2,19.4,64,30.03,10.0,Calm,Calm,-,N/A,,Clear,0,2013-09-27 06:15:00
11:35 PM,30.2,19.4,64,30.03,7.0,Calm,Calm,-,N/A,,Clear,0,2013-09-27 06:35:00
11:55 PM,28.4,19.4,69,30.03,10.0,Calm,Calm,-,N/A,,Clear,0,2013-09-27 06:55:00